sat.trackr.live / text

‹ back to catalog

EXPRESS-AM8

NORAD 40895 · 2015-048A

PAYLOAD ACTIVE UNKNOWN

§ Identity

Operator
Country
CIS
Launch date
2015-09-14
Launch site
TYMSC
Launch vehicle
Mass (kg)
RCS (m²)
44.82

Purposes: comms

External: N2YO · Heavens-Above · Gunter

§ Orbital elements

Epoch: 2026-09-20T03:10:05.994048Z

Period
1,436.09 min
Inclination
0.0178°
Eccentricity
0.0000429
Mean motion
1.00272176 rev/d
Perigee alt
35,784.7 km
Apogee alt
35,788.3 km
Semi-major
42,164.6 km
B*
0.0000e+0
RAAN
202.3402°
Arg perigee
245.5010°
Mean anomaly
304.7263°
Rev number
4,029

§ Raw data

EXPRESS-AM81 40895U 15048A   26263.13201382 -.00000115  00000+0  00000+0 0  99992 40895   0.0178 202.3402 0000429 245.5010 304.7263  1.00272176 40295

JSON: /api/v1/satellites/40895 · /tle

For live sub-satellite position, see the globe view (requires WebGL).

§ Visibility from observer

Set your observer location to see the next 7 days of passes ≥ 10°. The values pass through the URL so the page stays shareable.

No JS? Fill the form by hand. The geolocation button needs JavaScript.